Time,TemperatureF,DewpointF,PressureIn,WindDirection,WindDirectionDegrees,WindSpeedMPH,WindSpeedGustMPH,Humidity,HourlyPrecipIn,Conditions,Clouds,dailyrainin,SoftwareType,DateUTC
2013-11-03 00:02:00,-999.0,-99.9,30.05,North,360,0.0,11.0,-999,-99.99,,,-99.99,,2013-11-03 04:02:00,
2013-11-03 00:13:00,38.0,35.0,30.05,North,360,0.0,11.0,89,0.00,,,0.01,,2013-11-03 04:13:00,
2013-11-03 00:23:00,38.0,35.0,30.05,ENE,57,0.0,12.0,88,0.00,,,0.01,,2013-11-03 04:23:00,
2013-11-03 00:44:00,38.0,35.0,30.05,NNW,346,3.0,9.0,88,0.00,,,0.01,,2013-11-03 04:44:00,
2013-11-03 00:52:00,37.0,34.0,30.06,North,355,7.0,13.0,89,0.00,,,0.01,,2013-11-03 04:52:00,
2013-11-03 01:23:00,37.0,34.0,30.07,North,350,1.0,12.0,89,0.00,,,0.01,,2013-11-03 05:23:00,
2013-11-03 01:43:00,37.0,34.0,30.08,North,5,5.0,14.0,89,0.00,,,0.01,,2013-11-03 05:43:00,
2013-11-03 01:53:00,37.0,34.0,30.09,NE,56,4.0,11.0,88,0.00,,,0.01,,2013-11-03 05:53:00,
2013-11-03 01:12:00,36.0,33.0,30.10,NE,40,4.0,10.0,88,0.00,,,0.01,,2013-11-03 06:12:00,
2013-11-03 01:23:00,36.0,33.0,30.11,NNW,342,3.0,8.0,88,0.00,,,0.01,,2013-11-03 06:23:00,
2013-11-03 01:43:00,36.0,32.0,30.12,NNW,346,1.0,8.0,86,0.00,,,0.01,,2013-11-03 06:43:00,
2013-11-03 01:53:00,36.0,32.0,30.13,North,351,1.0,9.0,86,0.00,,,0.01,,2013-11-03 06:53:00,
2013-11-03 02:11:00,35.0,31.0,30.14,NNW,344,3.0,7.0,85,0.00,,,0.01,,2013-11-03 07:11:00,
2013-11-03 02:22:00,35.0,31.0,30.14,North,355,0.0,0.0,85,0.00,,,0.01,,2013-11-03 07:22:00,
2013-11-03 02:42:00,35.0,31.0,30.15,ENE,74,1.0,10.0,84,0.00,,,0.01,,2013-11-03 07:42:00,
2013-11-03 02:52:00,35.0,31.0,30.15,NNE,29,0.0,4.0,84,0.00,,,0.01,,2013-11-03 07:52:00,
2013-11-03 03:21:00,35.0,31.0,30.17,NNE,32,2.0,9.0,84,0.00,,,0.01,,2013-11-03 08:21:00,
2013-11-03 03:42:00,35.0,30.0,30.17,NNE,24,0.0,9.0,83,0.00,,,0.01,,2013-11-03 08:42:00,
2013-11-03 03:52:00,35.0,31.0,30.18,ENE,59,0.0,1.0,84,0.00,,,0.01,,2013-11-03 08:52:00,
2013-11-03 04:12:00,35.0,30.0,30.18,NNE,20,1.0,7.0,83,0.00,,,0.01,,2013-11-03 09:12:00,
2013-11-03 04:22:00,35.0,30.0,30.19,ENE,59,0.0,11.0,82,0.00,,,0.01,,2013-11-03 09:22:00,
2013-11-03 04:53:00,34.0,29.0,30.22,NNE,15,2.0,10.0,82,0.00,,,0.01,,2013-11-03 09:53:00,
2013-11-03 05:23:00,34.0,29.0,30.23,NE,56,1.0,6.0,82,0.00,,,0.01,,2013-11-03 10:23:00,
2013-11-03 05:53:00,34.0,29.0,30.25,North,360,0.0,6.0,82,0.00,,,0.01,,2013-11-03 10:53:00,
2013-11-03 06:22:00,34.0,29.0,30.27,NW,315,1.0,9.0,82,0.00,,,0.01,,2013-11-03 11:22:00,
2013-11-03 06:43:00,34.0,29.0,30.27,North,11,1.0,7.0,82,0.00,,,0.01,,2013-11-03 11:43:00,
2013-11-03 06:52:00,34.0,29.0,30.28,NNW,344,1.0,9.0,82,0.00,,,0.01,,2013-11-03 11:52:00,
2013-11-03 07:22:00,34.0,29.0,30.30,NNW,332,1.0,12.0,81,0.00,,,0.01,,2013-11-03 12:22:00,
2013-11-03 07:42:00,34.0,29.0,30.32,ENE,67,4.0,11.0,81,0.00,,,0.01,,2013-11-03 12:42:00,
2013-11-03 07:52:00,34.0,29.0,30.33,NW,321,0.0,8.0,82,0.00,,,0.01,,2013-11-03 12:52:00,
2013-11-03 08:12:00,33.0,28.0,30.34,NE,54,0.0,12.0,82,0.00,,,0.01,,2013-11-03 13:12:00,
2013-11-03 08:22:00,33.0,28.0,30.35,North,351,2.0,17.0,82,0.00,,,0.01,,2013-11-03 13:22:00,
2013-11-03 08:42:00,33.0,28.0,30.36,NW,320,7.0,14.0,81,0.00,,,0.01,,2013-11-03 13:42:00,
2013-11-03 08:52:00,33.0,28.0,30.37,North,360,2.0,12.0,81,0.00,,,0.01,,2013-11-03 13:52:00,
2013-11-03 09:12:00,33.0,27.0,30.37,NE,44,4.0,10.0,79,0.00,,,0.01,,2013-11-03 14:12:00,
2013-11-03 09:22:00,34.0,28.0,30.37,NNW,327,6.0,14.0,78,0.00,,,0.01,,2013-11-03 14:22:00,
2013-11-03 09:52:00,34.0,28.0,30.39,North,11,3.0,12.0,77,0.00,,,0.01,,2013-11-03 14:52:00,
2013-11-03 10:11:00,34.0,27.0,30.40,WNW,300,7.0,12.0,76,0.00,,,0.01,,2013-11-03 15:11:00,
2013-11-03 10:22:00,34.0,28.0,30.41,North,355,0.0,12.0,77,0.00,,,0.01,,2013-11-03 15:22:00,
2013-11-03 10:43:00,34.0,28.0,30.41,North,360,2.0,11.0,77,0.00,,,0.01,,2013-11-03 15:43:00,
2013-11-03 10:53:00,34.0,28.0,30.42,NNE,16,2.0,13.0,79,0.00,,,0.01,,2013-11-03 15:53:00,
2013-11-03 11:23:00,33.0,27.0,30.44,North,355,4.0,14.0,78,0.00,,,0.01,,2013-11-03 16:23:00,
2013-11-03 11:43:00,33.0,27.0,30.45,North,355,5.0,10.0,78,0.00,,,0.01,,2013-11-03 16:43:00,
2013-11-03 11:53:00,34.0,27.0,30.44,NNW,344,3.0,11.0,75,0.00,,,0.01,,2013-11-03 16:53:00,
2013-11-03 12:23:00,34.0,27.0,30.44,NNW,329,3.0,11.0,75,0.00,,,0.01,,2013-11-03 17:23:00,
2013-11-03 12:43:00,34.0,28.0,30.44,NNW,338,3.0,12.0,77,0.00,,,0.01,,2013-11-03 17:43:00,
2013-11-03 12:53:00,34.0,27.0,30.45,North,10,1.0,9.0,76,0.00,,,0.01,,2013-11-03 17:53:00,
2013-11-03 13:23:00,34.0,26.0,30.46,NW,321,3.0,11.0,72,0.00,,,0.01,,2013-11-03 18:23:00,
2013-11-03 13:42:00,34.0,26.0,30.46,NNW,341,2.0,13.0,71,0.00,,,0.01,,2013-11-03 18:42:00,
2013-11-03 13:52:00,34.0,25.0,30.47,North,355,1.0,8.0,69,0.00,,,0.01,,2013-11-03 18:52:00,
2013-11-03 14:22:00,35.0,24.0,30.47,NNW,346,5.0,14.0,65,0.00,,,0.01,,2013-11-03 19:22:00,
2013-11-03 14:42:00,34.0,23.0,30.48,NNW,328,9.0,16.0,65,0.00,,,0.01,,2013-11-03 19:42:00,
2013-11-03 14:53:00,34.0,25.0,30.48,NNW,346,1.0,8.0,69,0.00,,,0.01,,2013-11-03 19:53:00,
2013-11-03 15:22:00,34.0,25.0,30.50,NW,312,1.0,12.0,70,0.00,,,0.01,,2013-11-03 20:22:00,
2013-11-03 15:42:00,34.0,25.0,30.50,NNW,333,3.0,10.0,70,0.00,,,0.01,,2013-11-03 20:42:00,
2013-11-03 15:52:00,34.0,25.0,30.51,NNW,336,4.0,11.0,69,0.00,,,0.01,,2013-11-03 20:52:00,
2013-11-03 16:22:00,34.0,23.0,30.52,NW,317,7.0,13.0,65,0.00,,,0.01,,2013-11-03 21:22:00,
2013-11-03 16:43:00,33.0,23.0,30.52,NNW,333,4.0,14.0,65,0.00,,,0.01,,2013-11-03 21:43:00,
2013-11-03 16:55:00,33.0,22.0,30.53,NNW,346,0.0,7.0,64,0.00,,,0.01,,2013-11-03 21:55:00,
2013-11-03 17:12:00,33.0,23.0,30.54,NNE,21,4.0,10.0,65,0.00,,,0.01,,2013-11-03 22:12:00,
2013-11-03 17:22:00,33.0,23.0,30.55,North,355,0.0,11.0,65,0.00,,,0.01,,2013-11-03 22:22:00,
2013-11-03 17:43:00,33.0,23.0,30.55,NW,320,0.0,10.0,66,0.00,,,0.01,,2013-11-03 22:43:00,
2013-11-03 17:52:00,33.0,23.0,30.56,NNW,340,0.0,9.0,66,0.00,,,0.01,,2013-11-03 22:52:00,
2013-11-03 18:23:00,33.0,22.0,30.58,NNW,328,0.0,11.0,63,0.00,,,0.00,,2013-11-03 23:23:00,
2013-11-03 18:42:00,32.0,21.0,30.58,ENE,57,2.0,7.0,64,0.00,,,0.00,,2013-11-03 23:42:00,
2013-11-03 18:53:00,32.0,20.0,30.59,North,10,1.0,10.0,61,0.00,,,0.00,,2013-11-03 23:53:00,
2013-11-03 19:22:00,32.0,20.0,30.60,NE,42,0.0,7.0,62,0.00,,,0.00,,2013-11-04 00:22:00,
2013-11-03 19:42:00,32.0,21.0,30.61,NE,53,0.0,5.0,64,0.00,,,0.00,,2013-11-04 00:42:00,
2013-11-03 19:52:00,31.0,19.0,30.61,NNE,21,3.0,9.0,61,0.00,,,0.00,,2013-11-04 00:52:00,
2013-11-03 20:22:00,30.0,19.0,30.62,East,90,0.0,4.0,63,0.00,,,0.00,,2013-11-04 01:22:00,
2013-11-03 20:52:00,29.0,19.0,30.63,East,90,0.0,0.0,66,0.00,,,0.00,,2013-11-04 01:52:00,
2013-11-03 21:22:00,28.0,20.0,30.64,East,90,0.0,0.0,71,0.00,,,0.00,,2013-11-04 02:22:00,
2013-11-03 21:42:00,28.0,20.0,30.65,East,90,0.0,0.0,72,0.00,,,0.00,,2013-11-04 02:42:00,
2013-11-03 21:53:00,27.0,19.0,30.65,East,90,0.0,0.0,72,0.00,,,0.00,,2013-11-04 02:53:00,
2013-11-03 22:22:00,26.0,20.0,30.67,East,90,0.0,0.0,78,0.00,,,0.00,,2013-11-04 03:22:00,
2013-11-03 22:44:00,25.0,19.0,30.67,East,90,0.0,0.0,79,0.00,,,0.00,,2013-11-04 03:44:00,
2013-11-03 22:54:00,26.0,20.0,30.68,East,90,0.0,0.0,79,0.00,,,0.00,,2013-11-04 03:54:00,
2013-11-03 23:24:00,24.0,19.0,30.68,East,90,0.0,0.0,81,0.00,,,0.00,,2013-11-04 04:24:00,
2013-11-03 23:43:00,23.0,19.0,30.69,East,90,0.0,0.0,84,0.00,,,0.00,,2013-11-04 04:43:00,
2013-11-03 23:53:00,23.0,19.0,30.70,East,90,0.0,0.0,85,0.00,,,0.00,,2013-11-04 04:53:00,